Flag for Japan Weather past 2 weeks in Sagamihara, Japan

Now
83 °F

Passing clouds.


Feels Like: 91 °F
Forecast: 76 / 88 °F
Wind: 5 mph from Southeast

Location: Yokota Ab

Current Time: Jul 29, 2015 at 12:35:39 AM

Latest Report: Jul 28, 2015 at 11:58 PM


Visibility: 10 mi

Pressure: 29.77 "Hg

Humidity: 81%

Dew point: 76 °F

Location of SagamiharaLocation

Historic Weather in Sagamihara — Graph

°F

Sagamihara temperature yesterday

Maximum temperature yesterday: 91 °F (at 2:58 PM)
Minimum temperature yesterday: 79 °F (at 9:58 AM)
Average temperature yesterday: 84 °F

Past Weeks' High & Low Weather Summary

 TemperatureHumidityPressure
High95 °F (Jul 26, 12:58 PM)100% (Jul 16, 2:00 AM)30.01 "Hg (Jul 16, 2:00 AM)
Low71 °F (Jul 19, 2:58 AM)44% (Jul 14, 10:58 AM)29.65 "Hg (Jul 14, 3:58 PM)
Average82 °F74%29.83 "Hg
* Reported Jul 13 10:58 PM — Jul 28 10:58 PM, Sagamihara, Weather by CustomWeather, © 2015

Note: Actual official high and low records may vary slightly from our data, if they occured in-between our weather recording intervals... More about our weather records

Advertising

Sagamihara weather history for previous 24 hours

 ConditionsComfort  
Time TempWeatherWind HumidityBarometerVisibility
10:58 PM
Tue, Jul 28
84 °FPassing clouds.2 mph74%29.77 "Hg10 mi
9:58 PM84 °FPassing clouds.3 mph70%29.78 "Hg10 mi
8:58 PM85 °FPassing clouds.6 mph69%29.77 "Hg10 mi
7:58 PM85 °FPassing clouds.9 mph69%29.75 "Hg10 mi
6:58 PM86 °FPassing clouds.10 mph69%29.73 "Hg10 mi
5:58 PM89 °FScattered clouds.9 mph58%29.72 "Hg10 mi
4:58 PM91 °FSunny.6 mph53%29.71 "Hg10 mi
3:58 PM91 °FScattered clouds.7 mph53%29.70 "Hg10 mi
2:58 PM91 °FSunny.3 mph54%29.70 "Hg10 mi
1:58 PM89 °FPassing clouds.5 mph59%29.72 "Hg10 mi
12:58 PM89 °FSunny.5 mph59%29.72 "Hg10 mi
11:58 AM87 °FScattered clouds.5 mph67%29.74 "Hg10 mi
10:58 AM84 °FPassing clouds.7 mph73%29.75 "Hg10 mi
9:58 AM79 °FScattered clouds.3 mph86%29.78 "Hg10 mi
8:58 AM84 °FPassing clouds.9 mph71%29.76 "Hg10 mi
7:58 AM79 °FFog.10 mph91%29.76 "Hg6 mi
6:58 AM80 °FPartly sunny.6 mph89%29.75 "Hg9 mi
6:00 AM81 °FPassing clouds.7 mph89%29.77 "Hg7 mi
5:03 AM79 °FPartly sunny.6 mph94%29.75 "Hg8 mi
3:58 AM79 °FPassing clouds.8 mph94%29.72 "Hg10 mi
2:58 AM79 °FClear.6 mph91%29.71 "Hg10 mi
1:58 AM81 °FPassing clouds.7 mph88%29.72 "Hg10 mi
12:58 AM82 °FPassing clouds.7 mph86%29.73 "Hg10 mi
Weather by CustomWeather, © 2015

See weather overviewHow to use our weather pages